STARLINK-1734, 46325

Orbit data source: Space-Track

STARLINK-1734, 46325 is a payload satellite owned by SpaceX/Seattle (US) in LEO that was launched on Thu, 03 Sep 2020 UTC via an FALCON 9 launch vehicle from the Air Force Eastern Test Range (AFETR). Payload-class satellites include a variety of spacecraft equipped with specific instruments for various scientific and technological missions. These include communications satellites like Starlink; space stations such as the ISS; scientific satellites like the Hubble; Earth observation satellites from companies like Planet Labs, Umbra, and HawkEye 360; GPS; miniature CubeSats for education and research; and military/defense satellites.

Not visible in the next 10 days
Identifier
46325, 2020-062A
Orbit
LEO
Country
Flag of USUS
Related business
Manufacturer
SpaceX/Seattle
Mission
Partially operational Commercial Communications
Bus & Motor
STARLINK, Unknown motor
Mass
260 kg wet, ~248 kg dry
Launch date (UTC)
2020-09-03 (5 years ago)
Launch vehicle
FALCON 9
Launch site
Air Force Eastern Test Range (AFETR)
Object type
Payload
Rocket body
Debris
Shape & HBR
Box + 1 Pan, 10.1 m
Radar Cross Section
13.562 m², Large (>1 m²)

Expand to show TLE details & history
Last TLE update: 15 hours ago

TLE from 15 hours ago
0 STARLINK-1734
1 46325U 20062A   25347.27552212  .00903673  40438-3  16659-2 0  9996
2 46325  53.0155 283.1621 0004373 122.0701 238.0754 16.00676969293591
Epoch: 2025-12-13T06:36Z
TLE epoch observation values (Epoch: 2025-12-13T06:36:45.111Z)
Latitude
0.00004°
Longitude
101.76904°
Altitude
274.993 km
Speed
7.743 km/s
True Right ascension
18h 52m 38s
True Declination
0° 00' 00"
Sunlit
Object was in daylight at epoch
Visualization orbit readout
Latitude
Unknown
Longitude
Unknown
Altitude
Unknown
Speed
Unknown
Apparent Right ascension
Unknown
Apparent Declination
Unknown
Sunlit
N/A
Visualization observer readout
Local Sidereal Time
19:44:05
Azimuth
Unknown
Elevation
Unknown
Doppler factor
Unknown
Orbital elements
Apogee altitude
275.739 km
Perigee altitude
269.922 km
Semi-major axis
6,650.968 km
Eccentricity
0.00044
Inclination
53.0155°
RAAN
283.1621°
Arg. of periapsis
122.0701°
True anomaly
238.03288°
Mean anomaly
238.0754°
Eccentric anomaly
238.05414°
Mean motion
4.00144 °/min
Orbital period
89.97 mins
BSTAR
0.0016659
Loading maneuver chart data...
Computing Atmospheric mass density...
Loading historical data...
Loading historical data...
Loading historical data...
Loading historical data...
Loading historical data...
Loading historical data...
Loading historical data...

Documentation

Showing up to 5 results
|